Louisville, KY

1:51 PM EDT on July 20, 2017 (GMT -0400)
Louisville International-Standiford

Weather History for KSDF - October, 2012

Change the Weather History Date:

Thursday, October 4, 2012

  Actual Average Record
Temperature  
Mean Temperature 68 °F 64 °F  
Max Temperature 79 °F 74 °F 92 °F (1959)
Min Temperature 56 °F 53 °F 35 °F (1987)
Degree Days  
Heating Degree Days 0 4  
Month to date heating degree days 4 15  
Since 1 July heating degree days 36 45  
Cooling Degree Days 3 3  
Month to date cooling degree days 4 12  
Year to date cooling degree days 1925 1579  
Growing Degree Days 17 (Base 50)    
Moisture  
Dew Point 55 °F    
Average Humidity 64    
Maximum Humidity 86    
Minimum Humidity 42    
Precipitation  
Precipitation 0.00 in 0.11 in 1.83 in (1949)
Month to date precipitation 1.12 0.42  
Year to date precipitation 36.52 34.69  
Snow  
Snow 0.00 in 0.00 in 0.00 in ()
Month to date snowfall 0.0 0.0  
Since 1 July snowfall 0.0 0.0  
Since 1 September snowfall 0.0 0.0  
Snow Depth 0.00 in    
Sea Level Pressure  
Sea Level Pressure 30.18 in    
Wind  
Wind Speed 6 mph (South)    
Max Wind Speed 16 mph    
Max Gust Speed 21 mph    
Visibility 10 miles    
Events      
T = Trace of Precipitation, MM = Missing Value Source: NWS Daily Summary

Daily Weather History Graph

Daily Weather History Graph

Search for Another Location

Airport or City:

Trip Planner

Search our weather history database for the weather conditions in past years. The results will help you decide how hot, cold, wet, or windy it might be!

Date:

Astronomy

Oct. 04, 2012 Rise Set
Actual Time 7:41 AM EDT 7:20 PM EDT
Civil Twilight 7:15 AM EDT 7:46 PM EDT
Nautical Twilight 6:44 AM EDT 8:17 PM EDT
Astronomical Twilight 6:14 AM EDT 8:48 PM EDT
Moon 9:59 PM EDT (10/4) 11:54 AM EDT (10/4)
Length of Visible Light 12h 31m
Length of Day
11h 38m
Waning Gibbous, 82% of the Moon is Illuminated
Oct 4
Waning Gibbous
Oct 8
Last Quarter
Oct 15
New
Oct 21
First Quarter
Oct 29
Full

Hourly Weather History & Observations

Time (EDT) Temp. Dew Point Humidity Pressure Visibility Wind Dir Wind Speed Gust Speed Precip Events Conditions
12:56 AM 60.1 °F 53.1 °F 78% 30.14 in 10.0 mi ESE 4.6 mph - N/A   Clear
1:56 AM 57.9 °F 53.1 °F 84% 30.15 in 10.0 mi SE 4.6 mph - N/A   Clear
2:56 AM 57.0 °F 52.0 °F 83% 30.15 in 10.0 mi SE 3.5 mph - N/A   Clear
3:56 AM 57.0 °F 52.0 °F 83% 30.16 in 10.0 mi Calm Calm - N/A   Clear
4:56 AM 57.9 °F 52.0 °F 81% 30.16 in 10.0 mi SSE 5.8 mph - N/A   Clear
5:56 AM 57.0 °F 52.0 °F 83% 30.18 in 10.0 mi SE 3.5 mph - N/A   Clear
6:56 AM 55.9 °F 52.0 °F 87% 30.19 in 9.0 mi ESE 3.5 mph - N/A   Scattered Clouds
7:56 AM 55.9 °F 52.0 °F 87% 30.21 in 7.0 mi SE 3.5 mph - N/A   Partly Cloudy
8:56 AM 57.9 °F 53.1 °F 84% 30.22 in 7.0 mi ESE 3.5 mph - N/A   Partly Cloudy
9:56 AM 64.0 °F 55.9 °F 75% 30.22 in 8.0 mi SE 4.6 mph - N/A   Clear
10:56 AM 69.1 °F 55.9 °F 63% 30.23 in 9.0 mi SW 5.8 mph - N/A   Clear
11:56 AM 72.0 °F 57.9 °F 61% 30.23 in 10.0 mi WSW 8.1 mph - N/A   Clear
12:56 PM 75.0 °F 57.9 °F 55% 30.22 in 10.0 mi SSW 10.4 mph - N/A   Partly Cloudy
1:56 PM 75.9 °F 57.0 °F 52% 30.20 in 10.0 mi SSW 9.2 mph 17.3 mph N/A   Partly Cloudy
2:56 PM 78.1 °F 55.0 °F 45% 30.17 in 10.0 mi SW 11.5 mph 19.6 mph N/A   Partly Cloudy
3:56 PM 78.1 °F 54.0 °F 43% 30.15 in 10.0 mi WSW 10.4 mph 16.1 mph N/A   Partly Cloudy
4:56 PM 78.1 °F 54.0 °F 43% 30.15 in 10.0 mi SSW 10.4 mph - N/A   Partly Cloudy
5:56 PM 77.0 °F 54.0 °F 45% 30.15 in 10.0 mi SSW 8.1 mph - N/A   Partly Cloudy
6:56 PM 75.0 °F 55.0 °F 50% 30.15 in 10.0 mi South 5.8 mph - N/A   Clear
7:56 PM 72.0 °F 55.9 °F 57% 30.16 in 10.0 mi South 4.6 mph - N/A   Clear
8:56 PM 69.1 °F 55.9 °F 63% 30.16 in 10.0 mi SSW 4.6 mph - N/A   Clear
9:56 PM 66.2 °F 57.2 °F 73% 30.16 in 10.0 mi South 6.9 mph - N/A   Clear
10:56 PM 66.9 °F 57.0 °F 70% 30.16 in 10.0 mi South 5.8 mph - N/A   Clear
11:56 PM 68.0 °F 55.9 °F 65% 30.16 in 10.0 mi South 5.8 mph - N/A   Clear